,,,PA_Meas_PMT16A,,PR_Meas_QMR101_102,,RH_Meas_QMH101,,SR_Meas_QMS101,,TA_Meas_QMH101,,GenWind,,GenWind,
date,time,status,PA,status,PR,status,RH,status,SR,status,TA,status,DirAvg,status,SpdAvg,
2011-12-25, 00:00:04,VALID,1000.81,VALID,0,VALID,85.7486,VALID,0,VALID,26.0966,VALID,273,VALID,0.000390625,
2011-12-25, 00:01:04,VALID,1000.81,VALID,0,VALID,85.4587,VALID,0,VALID,26.0985,VALID,277,VALID,0.392969,
2011-12-25, 00:02:04,VALID,1000.82,VALID,0,VALID,85.2756,VALID,0,VALID,26.0966,VALID,300,VALID,0.447656,
2011-12-25, 00:03:04,VALID,1000.83,VALID,0,VALID,85.6723,VALID,0,VALID,26.118,VALID,313,VALID,0.485156,
2011-12-25, 00:04:04,VALID,1000.86,VALID,0,VALID,85.5655,VALID,0,VALID,26.0771,VALID,329,VALID,0.361719,
2011-12-25, 00:05:04,VALID,1000.85,VALID,0,VALID,85.4282,VALID,0,VALID,26.0985,VALID,351,VALID,0.728906,
2011-12-25, 00:06:04,VALID,1000.84,VALID,0,VALID,85.1459,VALID,0,VALID,26.0985,VALID,9,VALID,0.612109,
2011-12-25, 00:07:04,VALID,1000.85,VALID,0,VALID,84.4593,VALID,0,VALID,26.0576,VALID,349,VALID,1.0957,
2011-12-25, 00:08:04,VALID,1000.86,VALID,0,VALID,84.795,VALID,0,VALID,26.116,VALID,13,VALID,0.6375,
2011-12-25, 00:09:04,VALID,1000.87,VALID,0,VALID,84.795,VALID,0,VALID,26.1375,VALID,344,VALID,0.70625,
2011-12-25, 00:10:04,VALID,1000.86,VALID,0,VALID,84.6195,VALID,0,VALID,26.118,VALID,334,VALID,0.631641,
2011-12-25, 00:11:04,VALID,1000.86,VALID,0,VALID,84.5051,VALID,0,VALID,26.0985,VALID,338,VALID,0.801562,
2011-12-25, 00:12:04,VALID,1000.85,VALID,0,VALID,84.4212,VALID,0,VALID,26.159,VALID,320,VALID,0.762891,
2011-12-25, 00:13:04,VALID,1000.82,VALID,0,VALID,84.3449,VALID,0,VALID,26.1355,VALID,342,VALID,0.659766,
2011-12-25, 00:14:04,VALID,1000.83,VALID,0,VALID,84.322,VALID,0,VALID,26.1765,VALID,344,VALID,0.500391,
2011-12-25, 00:15:04,VALID,1000.85,VALID,0,VALID,84.3754,VALID,0,VALID,26.1745,VALID,351,VALID,0.586328,
2011-12-25, 00:16:04,VALID,1000.81,VALID,0,VALID,84.0779,VALID,0,VALID,26.1745,VALID,347,VALID,0.816406,
2011-12-25, 00:17:04,VALID,1000.8,VALID,0,VALID,84.0626,VALID,0,VALID,26.1745,VALID,348,VALID,0.437109,
2011-12-25, 00:18:04,VALID,1000.79,VALID,0,VALID,83.9253,VALID,0,VALID,26.2154,VALID,335,VALID,1.02578,
2011-12-25, 00:19:04,VALID,1000.77,VALID,0,VALID,83.5973,VALID,0,VALID,26.2349,VALID,321,VALID,0.608594,
2011-12-25, 00:20:04,VALID,1000.74,VALID,0,VALID,83.5057,VALID,0,VALID,26.2524,VALID,338,VALID,0.769531,
2011-12-25, 00:21:04,VALID,1000.75,VALID,0,VALID,83.3837,VALID,0,VALID,26.2329,VALID,349,VALID,0.803125,
2011-12-25, 00:22:04,VALID,1000.68,VALID,0,VALID,83.2997,VALID,0,VALID,26.2719,VALID,352,VALID,1.05469,
2011-12-25, 00:23:04,VALID,1000.66,VALID,0,VALID,83.8338,VALID,0,VALID,26.2719,VALID,358,VALID,0.498047,
2011-12-25, 00:24:04,VALID,1000.63,VALID,0,VALID,84.1466,VALID,0,VALID,26.2739,VALID,9,VALID,0.449609,
2011-12-25, 00:25:04,VALID,1000.58,VALID,0,VALID,83.7727,VALID,0,VALID,26.2134,VALID,360,VALID,0.742969,
2011-12-25, 00:26:04,VALID,1000.53,VALID,0,VALID,84.2228,VALID,0,VALID,26.2154,VALID,331,VALID,0.56875,
2011-12-25, 00:27:04,VALID,1000.51,VALID,0,VALID,83.9253,VALID,0,VALID,26.1959,VALID,351,VALID,0.771484,
2011-12-25, 00:28:04,VALID,1000.51,VALID,0,VALID,84.2839,VALID,0,VALID,26.1959,VALID,351,VALID,0.539453,
2011-12-25, 00:29:04,VALID,1000.49,VALID,0,VALID,84.0245,VALID,0,VALID,26.1765,VALID,351,VALID,0.906641,
2011-12-25, 00:30:04,VALID,1000.47,VALID,0,VALID,83.9863,VALID,0,VALID,26.1765,VALID,345,VALID,0.831641,
2011-12-25, 00:31:04,VALID,1000.45,VALID,0,VALID,83.8948,VALID,0,VALID,26.1959,VALID,345,VALID,0.628906,
2011-12-25, 00:32:04,VALID,1000.44,VALID,0,VALID,83.7422,VALID,0,VALID,26.1959,VALID,345,VALID,0.702344,
2011-12-25, 00:33:04,VALID,1000.43,VALID,0,VALID,83.7117,VALID,0,VALID,26.194,VALID,345,VALID,0.560938,
2011-12-25, 00:34:04,VALID,1000.44,VALID,0,VALID,83.4218,VALID,0,VALID,26.194,VALID,348,VALID,1.09219,
2011-12-25, 00:35:04,VALID,1000.45,VALID,0,VALID,83.2311,VALID,0,VALID,26.2349,VALID,349,VALID,0.445313,
2011-12-25, 00:36:04,VALID,1000.45,VALID,0,VALID,83.4065,VALID,0,VALID,26.2524,VALID,352,VALID,0.346875,
2011-12-25, 00:37:04,VALID,1000.46,VALID,0,VALID,83.3837,VALID,0,VALID,26.2719,VALID,351,VALID,0.455859,
2011-12-25, 00:38:04,VALID,1000.46,VALID,0,VALID,83.2082,VALID,0,VALID,26.3108,VALID,351,VALID,0.495703,
2011-12-25, 00:39:04,VALID,1000.43,VALID,0,VALID,82.9641,VALID,0,VALID,26.3303,VALID,3,VALID,0.779297,
2011-12-25, 00:40:04,VALID,1000.42,VALID,0,VALID,83.0022,VALID,0,VALID,26.3498,VALID,356,VALID,0.489844,
2011-12-25, 00:41:04,VALID,1000.4,VALID,0,VALID,82.9336,VALID,0,VALID,26.3693,VALID,349,VALID,0.635938,
2011-12-25, 00:42:04,VALID,1000.4,VALID,0,VALID,82.7962,VALID,0,VALID,26.4102,VALID,340,VALID,0.475391,
2011-12-25, 00:43:04,VALID,1000.36,VALID,0,VALID,82.5521,VALID,0,VALID,26.3887,VALID,357,VALID,1.20039,
2011-12-25, 00:44:04,VALID,1000.34,VALID,0,VALID,82.9717,VALID,0,VALID,26.3693,VALID,351,VALID,0.939453,
2011-12-25, 00:45:04,VALID,1000.33,VALID,0,VALID,82.3919,VALID,0,VALID,26.3907,VALID,347,VALID,1.10156,
2011-12-25, 00:46:04,VALID,1000.28,VALID,0,VALID,82.7276,VALID,0,VALID,26.3887,VALID,351,VALID,0.83125,
2011-12-25, 00:47:04,VALID,1000.27,VALID,0,VALID,82.8496,VALID,0,VALID,26.3693,VALID,350,VALID,0.962109,
2011-12-25, 00:48:04,VALID,1000.26,VALID,0,VALID,82.7962,VALID,0,VALID,26.3907,VALID,352,VALID,0.6875,
2011-12-25, 00:49:04,VALID,1000.2,VALID,0,VALID,83.0098,VALID,0,VALID,26.3713,VALID,353,VALID,0.351172,
2011-12-25, 00:50:04,VALID,1000.17,VALID,0,VALID,83.1167,VALID,0,VALID,26.3713,VALID,356,VALID,0.772656,
2011-12-25, 00:51:04,VALID,1000.15,VALID,0,VALID,83.6125,VALID,0,VALID,26.3323,VALID,356,VALID,0.636328,
2011-12-25, 00:52:04,VALID,1000.1,VALID,0,VALID,83.5439,VALID,0,VALID,26.2739,VALID,5,VALID,0.946484,
2011-12-25, 00:53:04,VALID,1000.09,VALID,0,VALID,84.4288,VALID,0,VALID,26.2739,VALID,360,VALID,0.3,
2011-12-25, 00:54:04,VALID,1000.08,VALID,0,VALID,84.4822,VALID,0,VALID,26.194,VALID,360,VALID,0.471875,
2011-12-25, 00:55:04,VALID,1000.09,VALID,0,VALID,84.94,VALID,0,VALID,26.1765,VALID,360,VALID,0.448828,
2011-12-25, 00:56:04,VALID,1000.06,VALID,0,VALID,84.4517,VALID,0,VALID,26.116,VALID,346,VALID,0.933594,
2011-12-25, 00:57:04,VALID,1000.08,VALID,0,VALID,84.5661,VALID,0,VALID,26.118,VALID,346,VALID,0.511328,
2011-12-25, 00:58:04,VALID,1000.06,VALID,0,VALID,84.5356,VALID,0,VALID,26.0771,VALID,347,VALID,0.605078,
2011-12-25, 00:59:04,VALID,1000.05,VALID,0,VALID,84.2,VALID,0,VALID,26.0791,VALID,345,VALID,0.676562,
2011-12-25, 01:00:04,VALID,1000,VALID,0,VALID,84.5509,VALID,0,VALID,26.0985,VALID,344,VALID,0.449609,
2011-12-25, 01:01:04,VALID,999.978,VALID,0,VALID,85.1459,VALID,0,VALID,26.0771,VALID,344,VALID,0.437891,
2011-12-25, 01:02:04,VALID,999.974,VALID,0,VALID,84.7569,VALID,0,VALID,26.0596,VALID,344,VALID,0.459375,
2011-12-25, 01:03:04,VALID,999.983,VALID,0,VALID,85.1383,VALID,0.0815089,VALID,26.0187,VALID,344,VALID,0.546094,
2011-12-25, 01:04:04,VALID,999.971,VALID,0,VALID,85.1993,VALID,0,VALID,26.0206,VALID,344,VALID,0.299609,
2011-12-25, 01:05:04,VALID,999.954,VALID,0,VALID,85.4435,VALID,0,VALID,25.9797,VALID,344,VALID,0.492969,
2011-12-25, 01:06:04,VALID,999.938,VALID,0,VALID,85.123,VALID,0,VALID,25.9602,VALID,344,VALID,0.01875,
2011-12-25, 01:07:04,VALID,999.918,VALID,0,VALID,85.3672,VALID,0,VALID,25.9817,VALID,344,VALID,0.0960938,
2011-12-25, 01:08:04,VALID,999.894,VALID,0,VALID,85.4969,VALID,0,VALID,26.0012,VALID,344,VALID,0.025,
2011-12-25, 01:09:04,VALID,999.905,VALID,0,VALID,85.0925,VALID,0,VALID,25.9797,VALID,344,VALID,0.352734,
2011-12-25, 01:10:04,VALID,999.852,VALID,0,VALID,85.0391,VALID,0,VALID,26.0206,VALID,344,VALID,0,
2011-12-25, 01:11:04,VALID,999.86,VALID,0,VALID,85.1154,VALID,0,VALID,26.0401,VALID,344,VALID,0.0195313,
2011-12-25, 01:12:04,VALID,999.794,VALID,0,VALID,84.856,VALID,0,VALID,26.0381,VALID,352,VALID,0.573047,
2011-12-25, 01:13:04,VALID,999.774,VALID,0,VALID,84.4059,VALID,0.0815089,VALID,26.0576,VALID,353,VALID,0.409766,
2011-12-25, 01:14:04,VALID,999.742,VALID,0,VALID,84.6424,VALID,0,VALID,26.0966,VALID,353,VALID,0.0046875,
2011-12-25, 01:15:04,VALID,999.747,VALID,0,VALID,84.5509,VALID,0,VALID,26.118,VALID,350,VALID,0.234375,
2011-12-25, 01:16:04,VALID,999.755,VALID,0,VALID,84.5814,VALID,0,VALID,26.118,VALID,350,VALID,0.00351562,
2011-12-25, 01:17:04,VALID,999.73,VALID,0,VALID,84.9934,VALID,0,VALID,26.0966,VALID,350,VALID,0.354688,
2011-12-25, 01:18:04,VALID,999.715,VALID,0,VALID,85.8707,VALID,0,VALID,26.0771,VALID,350,VALID,0.332812,
2011-12-25, 01:19:04,VALID,999.698,VALID,0,VALID,86.3284,VALID,0,VALID,26.0596,VALID,350,VALID,0.223047,
2011-12-25, 01:20:04,VALID,999.697,VALID,0,VALID,86.6259,VALID,0,VALID,26.0012,VALID,350,VALID,0.252734,
2011-12-25, 01:21:04,VALID,999.652,VALID,0,VALID,86.9845,VALID,0,VALID,25.9427,VALID,350,VALID,0.288281,
2011-12-25, 01:22:04,VALID,999.661,VALID,0,VALID,87.427,VALID,0,VALID,25.8843,VALID,350,VALID,0.141406,
2011-12-25, 01:23:04,VALID,999.664,VALID,0,VALID,87.1218,VALID,0,VALID,25.8259,VALID,350,VALID,0.312109,
2011-12-25, 01:24:04,VALID,999.624,VALID,0,VALID,87.5261,VALID,0,VALID,25.8064,VALID,350,VALID,0.193359,
2011-12-25, 01:25:04,VALID,999.605,VALID,0,VALID,87.3736,VALID,0,VALID,25.746,VALID,350,VALID,0.192969,
2011-12-25, 01:26:04,VALID,999.593,VALID,0,VALID,88.0144,VALID,0,VALID,25.7285,VALID,350,VALID,0.319531,
2011-12-25, 01:27:04,VALID,999.554,VALID,0,VALID,88.3501,VALID,0,VALID,25.6895,VALID,350,VALID,0.233594,
2011-12-25, 01:28:04,VALID,999.561,VALID,0,VALID,88.4187,VALID,0,VALID,25.6486,VALID,350,VALID,0.252344,
2011-12-25, 01:29:04,VALID,999.53,VALID,0,VALID,88.3806,VALID,0,VALID,25.6311,VALID,350,VALID,0.114453,
2011-12-25, 01:30:04,VALID,999.546,VALID,0,VALID,88.3195,VALID,0,VALID,25.5921,VALID,350,VALID,0.319141,
2011-12-25, 01:31:04,VALID,999.535,VALID,0,VALID,88.7239,VALID,0,VALID,25.5513,VALID,350,VALID,0,
2011-12-25, 01:32:04,VALID,999.531,VALID,0,VALID,88.8002,VALID,0,VALID,25.5532,VALID,350,VALID,0,
2011-12-25, 01:33:04,VALID,999.536,VALID,0,VALID,88.9909,VALID,0,VALID,25.5123,VALID,350,VALID,0,
2011-12-25, 01:34:04,VALID,999.537,VALID,0,VALID,89.1664,VALID,0,VALID,25.4928,VALID,350,VALID,0,
2011-12-25, 01:35:04,VALID,999.532,VALID,0,VALID,89.029,VALID,0,VALID,25.4928,VALID,350,VALID,0,
2011-12-25, 01:36:04,VALID,999.523,VALID,0,VALID,89.5402,VALID,0,VALID,25.5123,VALID,350,VALID,0,
2011-12-25, 01:37:04,VALID,999.51,VALID,0,VALID,89.7156,VALID,0,VALID,25.4928,VALID,350,VALID,0.275391,
2011-12-25, 01:38:04,VALID,999.512,VALID,0,VALID,89.7614,VALID,0,VALID,25.4928,VALID,350,VALID,0.107031,
2011-12-25, 01:39:04,VALID,999.515,VALID,0,VALID,89.8911,VALID,0,VALID,25.4734,VALID,350,VALID,0.250391,
2011-12-25, 01:40:04,VALID,999.525,VALID,0,VALID,89.8224,VALID,0,VALID,25.4558,VALID,350,VALID,0.040625,
2011-12-25, 01:41:04,VALID,999.486,VALID,0,VALID,89.8148,VALID,0,VALID,25.4363,VALID,350,VALID,0,
2011-12-25, 01:42:04,VALID,999.46,VALID,0,VALID,90.0971,VALID,0,VALID,25.3955,VALID,350,VALID,0,
2011-12-25, 01:43:04,VALID,999.454,VALID,0,VALID,90.3488,VALID,0,VALID,25.3779,VALID,350,VALID,0.132031,
2011-12-25, 01:44:04,VALID,999.421,VALID,0,VALID,90.3641,VALID,0,VALID,25.337,VALID,9,VALID,0.594141,
2011-12-25, 01:45:04,VALID,999.407,VALID,0,VALID,90.4404,VALID,0,VALID,25.3176,VALID,9,VALID,0.406641,
2011-12-25, 01:46:04,VALID,999.401,VALID,0,VALID,90.5396,VALID,0,VALID,25.3195,VALID,9,VALID,0,
2011-12-25, 01:47:04,VALID,999.354,VALID,0,VALID,90.6998,VALID,0,VALID,25.3,VALID,9,VALID,0,
2011-12-25, 01:48:04,VALID,999.355,VALID,0,VALID,90.8218,VALID,0,VALID,25.2981,VALID,9,VALID,0,
2011-12-25, 01:49:04,VALID,999.342,VALID,0,VALID,90.2191,VALID,0,VALID,25.2592,VALID,7,VALID,0.731641,
2011-12-25, 01:50:04,VALID,999.314,VALID,0,VALID,90.3946,VALID,0,VALID,25.2592,VALID,346,VALID,0.705078,
2011-12-25, 01:51:04,VALID,999.275,VALID,0,VALID,90.5853,VALID,0,VALID,25.2786,VALID,346,VALID,0.611328,
2011-12-25, 01:52:04,VALID,999.231,VALID,0,VALID,90.6998,VALID,0,VALID,25.2786,VALID,346,VALID,0.704687,
2011-12-25, 01:53:04,VALID,999.214,VALID,0,VALID,90.6311,VALID,0,VALID,25.2592,VALID,347,VALID,0.524609,
2011-12-25, 01:54:04,VALID,999.16,VALID,0,VALID,90.4556,VALID,0,VALID,25.2397,VALID,344,VALID,0.705859,
2011-12-25, 01:55:04,VALID,999.085,VALID,0,VALID,90.4938,VALID,0,VALID,25.2806,VALID,344,VALID,0.550781,
2011-12-25, 01:56:04,VALID,999.056,VALID,0,VALID,90.1886,VALID,0,VALID,25.2592,VALID,344,VALID,0.684766,
2011-12-25, 01:57:04,VALID,999.027,VALID,0,VALID,89.8072,VALID,0,VALID,25.2786,VALID,347,VALID,0.875781,
2011-12-25, 01:58:04,VALID,999,VALID,0,VALID,89.1969,VALID,0,VALID,25.3157,VALID,341,VALID,0.992188,
2011-12-25, 01:59:04,VALID,998.959,VALID,0,VALID,88.9375,VALID,0,VALID,25.3955,VALID,353,VALID,0.488281,
2011-12-25, 02:00:04,VALID,998.948,VALID,0,VALID,88.7773,VALID,0,VALID,25.4539,VALID,351,VALID,0.0546875,
2011-12-25, 02:01:04,VALID,998.904,VALID,0,VALID,88.2585,VALID,0,VALID,25.5337,VALID,351,VALID,0.0871094,
2011-12-25, 02:02:04,VALID,998.884,VALID,0,VALID,88.0068,VALID,0,VALID,25.5513,VALID,352,VALID,0.509766,
2011-12-25, 02:03:04,VALID,998.905,VALID,0,VALID,87.5109,VALID,0,VALID,25.5902,VALID,345,VALID,0.569141,
2011-12-25, 02:04:04,VALID,998.866,VALID,0,VALID,86.9921,VALID,0,VALID,25.6681,VALID,347,VALID,0.980859,
2011-12-25, 02:05:04,VALID,998.86,VALID,0,VALID,86.6336,VALID,0,VALID,25.746,VALID,355,VALID,0.464063,
2011-12-25, 02:06:04,VALID,998.878,VALID,0,VALID,86.3589,VALID,0,VALID,25.8239,VALID,356,VALID,0.55,
2011-12-25, 02:07:04,VALID,998.857,VALID,0,VALID,86.1606,VALID,0,VALID,25.8434,VALID,354,VALID,0.604297,
2011-12-25, 02:08:04,VALID,998.833,VALID,0,VALID,86.0843,VALID,0,VALID,25.8823,VALID,354,VALID,0.458984,
2011-12-25, 02:09:04,VALID,998.874,VALID,0,VALID,85.7639,VALID,0,VALID,25.9427,VALID,342,VALID,0.747266,
2011-12-25, 02:10:04,VALID,998.855,VALID,0,VALID,85.9088,VALID,0,VALID,25.9408,VALID,339,VALID,0.757813,
2011-12-25, 02:11:04,VALID,998.837,VALID,0,VALID,85.535,VALID,0,VALID,25.9817,VALID,343,VALID,0.571094,
2011-12-25, 02:12:04,VALID,998.843,VALID,0,VALID,85.6418,VALID,0,VALID,26.0012,VALID,343,VALID,0.705469,
2011-12-25, 02:13:04,VALID,998.816,VALID,0,VALID,85.3748,VALID,0,VALID,26.0012,VALID,342,VALID,0.638281,
2011-12-25, 02:14:04,VALID,998.805,VALID,0,VALID,85.4816,VALID,0,VALID,26.0012,VALID,341,VALID,0.440234,
2011-12-25, 02:15:04,VALID,998.777,VALID,0,VALID,85.6418,VALID,0,VALID,25.9992,VALID,341,VALID,0.0539063,
2011-12-25, 02:16:04,VALID,998.795,VALID,0,VALID,85.5884,VALID,0,VALID,25.9992,VALID,344,VALID,0.251563,
2011-12-25, 02:17:04,VALID,998.786,VALID,0,VALID,85.5808,VALID,0,VALID,26.0012,VALID,327,VALID,0.478906,
2011-12-25, 02:18:04,VALID,998.805,VALID,0,VALID,85.3519,VALID,0,VALID,26.0012,VALID,355,VALID,0.712891,
2011-12-25, 02:19:04,VALID,998.833,VALID,0,VALID,85.5579,VALID,0,VALID,26.0206,VALID,350,VALID,0.00195313,
2011-12-25, 02:20:04,VALID,998.843,VALID,0,VALID,85.5655,VALID,0,VALID,26.0206,VALID,350,VALID,0.120312,
2011-12-25, 02:21:04,VALID,998.827,VALID,0,VALID,85.1765,VALID,0,VALID,25.9992,VALID,350,VALID,0.669141,
2011-12-25, 02:22:04,VALID,998.848,VALID,0,VALID,85.2451,VALID,0,VALID,26.0596,VALID,343,VALID,0.301172,
2011-12-25, 02:23:04,VALID,998.853,VALID,0,VALID,85.1688,VALID,0,VALID,26.0596,VALID,343,VALID,0.180859,
2011-12-25, 02:24:04,VALID,998.864,VALID,0,VALID,84.795,VALID,0,VALID,26.0381,VALID,331,VALID,0.589844,
2011-12-25, 02:25:04,VALID,998.816,VALID,0,VALID,84.9171,VALID,0,VALID,26.0576,VALID,331,VALID,0.0957031,
2011-12-25, 02:26:04,VALID,998.812,VALID,0,VALID,85.1841,VALID,0,VALID,26.0985,VALID,331,VALID,0,
2011-12-25, 02:27:04,VALID,998.796,VALID,0,VALID,85.0391,VALID,0,VALID,26.0576,VALID,332,VALID,0.290234,
2011-12-25, 02:28:04,VALID,998.777,VALID,0,VALID,84.8179,VALID,0,VALID,26.0381,VALID,344,VALID,0.702344,
2011-12-25, 02:29:04,VALID,998.748,VALID,0,VALID,84.9552,VALID,0,VALID,26.0596,VALID,344,VALID,0.592578,
2011-12-25, 02:30:04,VALID,998.792,VALID,0,VALID,85.4663,VALID,0,VALID,26.0381,VALID,346,VALID,0.612109,
2011-12-25, 02:31:04,VALID,998.788,VALID,0,VALID,85.2985,VALID,0,VALID,26.0381,VALID,344,VALID,0.813672,
2011-12-25, 02:32:04,VALID,998.811,VALID,0,VALID,85.3672,VALID,0,VALID,26.0206,VALID,348,VALID,0.467187,
2011-12-25, 02:33:04,VALID,998.804,VALID,0,VALID,85.3595,VALID,0,VALID,26.0206,VALID,348,VALID,0.796875,
2011-12-25, 02:34:04,VALID,998.824,VALID,0,VALID,85.7791,VALID,0,VALID,25.9797,VALID,348,VALID,0.500781,
2011-12-25, 02:35:04,VALID,998.826,VALID,0,VALID,86.2292,VALID,0,VALID,25.9408,VALID,350,VALID,0.425391,
2011-12-25, 02:36:04,VALID,998.848,VALID,0,VALID,86.3589,VALID,0,VALID,25.9427,VALID,350,VALID,0.308594,
2011-12-25, 02:37:04,VALID,998.859,VALID,0,VALID,86.275,VALID,0,VALID,25.9038,VALID,350,VALID,0.0902344,
2011-12-25, 02:38:04,VALID,998.854,VALID,0,VALID,86.6031,VALID,0,VALID,25.8843,VALID,350,VALID,0.034375,
2011-12-25, 02:39:04,VALID,998.872,VALID,0,VALID,86.6183,VALID,0,VALID,25.8823,VALID,350,VALID,0.0339844,
2011-12-25, 02:40:04,VALID,998.896,VALID,0,VALID,86.3589,VALID,0,VALID,25.8629,VALID,350,VALID,0.112891,
2011-12-25, 02:41:04,VALID,998.92,VALID,0,VALID,86.069,VALID,0,VALID,25.8823,VALID,317,VALID,0.636328,
2011-12-25, 02:42:04,VALID,998.932,VALID,0,VALID,86.1911,VALID,0,VALID,25.9427,VALID,291,VALID,0.213672,
2011-12-25, 02:43:04,VALID,998.941,VALID,0,VALID,85.9317,VALID,0,VALID,25.9213,VALID,326,VALID,0.683203,
2011-12-25, 02:44:04,VALID,998.985,VALID,0,VALID,86.0309,VALID,0,VALID,25.9602,VALID,352,VALID,0.545703,
2011-12-25, 02:45:04,VALID,999.023,VALID,0,VALID,85.9699,VALID,0,VALID,25.9797,VALID,352,VALID,0.118359,
2011-12-25, 02:46:04,VALID,999.086,VALID,0,VALID,85.4511,VALID,0,VALID,25.9992,VALID,349,VALID,0.616016,
2011-12-25, 02:47:04,VALID,999.113,VALID,0,VALID,85.4511,VALID,0,VALID,26.0381,VALID,320,VALID,0.212109,
2011-12-25, 02:48:04,VALID,999.128,VALID,0,VALID,85.3977,VALID,0,VALID,26.0576,VALID,335,VALID,0.0582031,
2011-12-25, 02:49:04,VALID,999.151,VALID,0,VALID,85.329,VALID,0,VALID,26.0576,VALID,340,VALID,0.577734,
2011-12-25, 02:50:04,VALID,999.171,VALID,0,VALID,85.2756,VALID,0,VALID,26.0771,VALID,355,VALID,0.521484,
2011-12-25, 02:51:04,VALID,999.206,VALID,0,VALID,85.3824,VALID,0,VALID,26.0985,VALID,347,VALID,0.637109,
2011-12-25, 02:52:04,VALID,999.244,VALID,0,VALID,85.3977,VALID,0,VALID,26.1005,VALID,348,VALID,0.587891,
2011-12-25, 02:53:04,VALID,999.21,VALID,0,VALID,85.5121,VALID,0,VALID,26.0791,VALID,330,VALID,0.611719,
2011-12-25, 02:54:04,VALID,999.24,VALID,0,VALID,85.5655,VALID,0,VALID,26.0771,VALID,352,VALID,0.785937,
2011-12-25, 02:55:04,VALID,999.245,VALID,0,VALID,85.5121,VALID,0,VALID,26.0791,VALID,330,VALID,0.254297,
2011-12-25, 02:56:04,VALID,999.247,VALID,0,VALID,85.4053,VALID,0,VALID,26.0596,VALID,350,VALID,0.454297,
2011-12-25, 02:57:04,VALID,999.266,VALID,0,VALID,85.6189,VALID,0,VALID,26.0381,VALID,318,VALID,0.651172,
2011-12-25, 02:58:04,VALID,999.282,VALID,0,VALID,85.8707,VALID,0,VALID,26.0596,VALID,292,VALID,0.344141,
2011-12-25, 02:59:04,VALID,999.26,VALID,0,VALID,85.9012,VALID,0,VALID,26.0381,VALID,292,VALID,0.186719,
2011-12-25, 03:00:04,VALID,999.27,VALID,0,VALID,85.9775,VALID,0,VALID,26.0401,VALID,325,VALID,0.834766,
2011-12-25, 03:01:04,VALID,999.306,VALID,0,VALID,85.8402,VALID,0,VALID,26.0187,VALID,281,VALID,0.412109,
2011-12-25, 03:02:04,VALID,999.342,VALID,0,VALID,86.0461,VALID,0,VALID,25.9992,VALID,305,VALID,0.156641,
2011-12-25, 03:03:04,VALID,999.353,VALID,0,VALID,86.1987,VALID,0,VALID,25.9992,VALID,304,VALID,0.345703,
2011-12-25, 03:04:04,VALID,999.406,VALID,0,VALID,86.3055,VALID,0,VALID,25.9992,VALID,304,VALID,0,
2011-12-25, 03:05:04,VALID,999.429,VALID,0,VALID,86.4123,VALID,0,VALID,25.9797,VALID,304,VALID,0.0152344,
2011-12-25, 03:06:04,VALID,999.431,VALID,0,VALID,86.4657,VALID,0,VALID,25.9817,VALID,323,VALID,0.198828,
2011-12-25, 03:07:04,VALID,999.454,VALID,0,VALID,86.5268,VALID,0,VALID,25.9408,VALID,283,VALID,0.238672,
2011-12-25, 03:08:04,VALID,999.462,VALID,0,VALID,86.481,VALID,0,VALID,25.9622,VALID,289,VALID,0.618359,
2011-12-25, 03:09:04,VALID,999.456,VALID,0,VALID,86.5802,VALID,0,VALID,25.9622,VALID,285,VALID,0.657422,
2011-12-25, 03:10:04,VALID,999.431,VALID,0,VALID,86.4047,VALID,0,VALID,25.9427,VALID,6,VALID,0.734375,
2011-12-25, 03:11:04,VALID,999.415,VALID,0,VALID,86.5649,VALID,0,VALID,25.9427,VALID,299,VALID,0.665234,
2011-12-25, 03:12:04,VALID,999.401,VALID,0,VALID,86.6412,VALID,0,VALID,25.9232,VALID,282,VALID,0.350781,
2011-12-25, 03:13:04,VALID,999.413,VALID,0,VALID,86.7709,VALID,0,VALID,25.9427,VALID,282,VALID,0.146484,
2011-12-25, 03:14:04,VALID,999.412,VALID,0,VALID,86.5573,VALID,0,VALID,25.9232,VALID,283,VALID,0.665625,
2011-12-25, 03:15:04,VALID,999.43,VALID,0,VALID,86.5268,VALID,0,VALID,25.9213,VALID,290,VALID,0.922266,
2011-12-25, 03:16:04,VALID,999.482,VALID,0,VALID,86.4047,VALID,0,VALID,25.9232,VALID,287,VALID,1.45117,
2011-12-25, 03:17:04,VALID,999.586,VALID,0,VALID,86.9235,VALID,0,VALID,25.9427,VALID,232,VALID,0.927734,
2011-12-25, 03:18:04,VALID,999.757,VALID,0,VALID,87.0303,VALID,0,VALID,25.9232,VALID,227,VALID,1.62148,
2011-12-25, 03:19:04,VALID,999.882,VALID,0,VALID,86.8319,VALID,0,VALID,25.8629,VALID,234,VALID,2.10703,
2011-12-25, 03:20:04,VALID,999.863,VALID,0,VALID,82.6208,VALID,0,VALID,25.6876,VALID,210,VALID,1.92305,
2011-12-25, 03:21:04,VALID,999.891,VALID,0,VALID,83.2235,VALID,0,VALID,25.5921,VALID,241,VALID,1.50937,
2011-12-25, 03:22:04,VALID,999.913,VALID,0,VALID,83.6812,VALID,0,VALID,25.5337,VALID,225,VALID,1.74883,
2011-12-25, 03:23:04,VALID,999.932,VALID,0,VALID,84.9705,VALID,0,VALID,25.4363,VALID,236,VALID,1.17109,
2011-12-25, 03:24:04,VALID,999.932,VALID,0,VALID,84.7874,VALID,0,VALID,25.2592,VALID,178,VALID,1.37773,
2011-12-25, 03:25:04,VALID,999.889,VALID,0,VALID,84.2762,VALID,0,VALID,25.1442,VALID,223,VALID,1.01211,
2011-12-25, 03:26:04,VALID,999.872,VALID,0,VALID,83.315,VALID,0,VALID,25.0255,VALID,228,VALID,1.56289,
2011-12-25, 03:27:04,VALID,999.853,VALID,0,VALID,84.1847,VALID,0,VALID,24.9282,VALID,227,VALID,1.98125,
2011-12-25, 03:28:04,VALID,999.888,VALID,0,VALID,85.1612,VALID,0,VALID,24.8503,VALID,195,VALID,0.610547,
2011-12-25, 03:29:04,VALID,999.933,VALID,0,VALID,86.1224,VALID,0,VALID,24.8132,VALID,244,VALID,1.57227,
2011-12-25, 03:30:04,VALID,999.958,VALID,0,VALID,86.6717,VALID,0,VALID,24.714,VALID,213,VALID,1.75234,
2011-12-25, 03:31:04,VALID,999.99,VALID,0,VALID,87.8466,VALID,0,VALID,24.7159,VALID,224,VALID,1.22305,
2011-12-25, 03:32:04,VALID,999.986,VALID,0,VALID,88.5713,VALID,0,VALID,24.6964,VALID,217,VALID,0.856641,
2011-12-25, 03:33:04,VALID,999.976,VALID,0,VALID,88.5026,VALID,0,VALID,24.6185,VALID,190,VALID,2.10313,
2011-12-25, 03:34:04,VALID,999.978,VALID,0,VALID,89.3952,VALID,0,VALID,24.5777,VALID,255,VALID,1.71797,
2011-12-25, 03:35:04,VALID,999.966,VALID,0,VALID,89.6241,VALID,0,VALID,24.5564,VALID,219,VALID,1.19023,
2011-12-25, 03:36:04,VALID,999.962,VALID,0,VALID,89.7919,VALID,0,VALID,24.5388,VALID,228,VALID,1.02578,
2011-12-25, 03:37:04,VALID,999.946,VALID,0,VALID,90.12,VALID,0,VALID,24.5582,VALID,127,VALID,0.426562,
2011-12-25, 03:38:04,VALID,999.897,VALID,0,VALID,89.6851,VALID,0,VALID,24.5193,VALID,284,VALID,1.17266,
2011-12-25, 03:39:04,VALID,999.878,VALID,0,VALID,89.8987,VALID,0,VALID,24.5193,VALID,270,VALID,0.620703,
2011-12-25, 03:40:04,VALID,999.871,VALID,0,VALID,89.8301,VALID,0,VALID,24.5388,VALID,224,VALID,0.553906,
2011-12-25, 03:41:04,VALID,999.846,VALID,0,VALID,89.914,VALID,0,VALID,24.5796,VALID,291,VALID,0.860156,
2011-12-25, 03:42:04,VALID,999.767,VALID,0,VALID,89.1435,VALID,0,VALID,24.5582,VALID,286,VALID,0.647656,
2011-12-25, 03:43:04,VALID,999.797,VALID,0,VALID,89.2579,VALID,0,VALID,24.5758,VALID,243,VALID,1.12891,
2011-12-25, 03:44:04,VALID,999.752,VALID,0,VALID,89.7843,VALID,0,VALID,24.6361,VALID,239,VALID,0.445703,
2011-12-25, 03:45:04,VALID,999.728,VALID,0,VALID,89.1664,VALID,0.0815089,VALID,24.6556,VALID,41,VALID,0.440234,